Location: Newark
(52.9300°N, 3.3400°W)
Time: 12:59:15
(UTC+00:00)

ISS - Pass Details

Date: 10 March 2021
Orbit: 418 x 422 km, 51.6° (Epoch: 17 April)

Event Time Altitude Azimuth Distance (km) Brightness Sun altitude
Exits shadow 04:45:27 28° 184° (S) 822 -2.5 -17.8°
Drops below altitude 10° 04:47:48 10° 144° (SE) 1,495 -0.7 -17.5°
Sets 04:50:02 0° 133° (SE) 2,356 0.5 -17.1°
